This demonstration page uses our WeatherBlox Daily Observations layout. Learn more.

Left ArrowRight Arrow

40.97296, -117.73568

Hourly Observations for January 14, 2022

Temp ( °F °C ) Dew Point ( °F °C ) Humidity (%) Winds ( mph kmh ) Pressure ( in mb ) Visibility ( mi km ) Precip ( " mm )
12:56 am 00:56 Mostly Cloudy 38 3.3 29 -1.7 70 70 NNW 8 13 30.33 1027 10 16 0.00 0.00
1:56 am 01:56 Clear 37 2.8 28 -2.2 70 70 NNW 9 15 30.34 1028 10 16 0.00 0.00
2:56 am 02:56 Clear 36 2.2 28 -2.2 73 73 NNW 6 9 30.37 1029 10 16 0.00 0.00
3:56 am 03:56 Clear 32 0 27 -2.8 82 82 NW 3 6 30.39 1029 10 16 0.00 0.00
4:56 am 04:56 Clear 30 -1.1 26 -3.3 85 85 NW 6 9 30.44 1031 10 16 0.00 0.00
5:56 am 05:56 Clear 27 -2.8 24 -4.4 89 89 SSW 7 11 30.49 1033 10 16 0.00 0.00
6:56 am 06:56 Clear 27 -2.8 24 -4.4 89 89 ESE 5 7 30.50 1033 10 16 0.00 0.00
7:56 am 07:56 Sunny 30 -1.1 27 -2.8 88 88 ENE 3 6 30.51 1033 10 16 0.00 0.00
8:56 am 08:56 Sunny 36 2.2 29 -1.7 76 76 Calm 30.52 1034 10 16 0.00 0.00
9:56 am 09:56 Sunny 40 4.4 30 -1.1 68 68 NE 10 17 30.55 1035 10 16 0.00 0.00
10:56 am 10:56 Sunny 43 6.1 31 -0.6 63 63 NNE 14 22 30.54 1034 10 16 0.00 0.00
11:56 am 11:56 Sunny 45 7.2 31 -0.6 58 58 NNE 13 20 30.50 1033 10 16 0.00 0.00
12:56 pm 12:56 Sunny 46 7.8 31 -0.6 56 56 NNE 16 26 30.48 1032 10 16 0.00 0.00
1:56 pm 13:56 Sunny 47 8.3 31 -0.6 54 54 NE 15 24 30.46 1032 10 16 0.00 0.00
2:56 pm 14:56 Sunny 47 8.3 32 0 56 56 NE 16 26 30.46 1032 10 16 0.00 0.00
3:56 pm 15:56 Sunny 46 7.8 32 0 58 58 NE 15 24 30.47 1032 10 16 0.00 0.00
4:56 pm 16:56 Clear 42 5.6 30 -1.1 62 62 ENE 12 19 30.50 1033 10 16 0.00 0.00
5:56 pm 17:56 Clear 38 3.3 30 -1.1 73 73 NNE 14 22 30.52 1034 10 16 0.00 0.00
6:56 pm 18:56 Clear 37 2.8 29 -1.7 73 73 NNE 12 19 30.54 1034 10 16 0.00 0.00
7:56 pm 19:56 Clear 35 1.7 29 -1.7 78 78 NE 5 7 30.53 1034 10 16 0.00 0.00
8:56 pm 20:56 Clear 35 1.7 29 -1.7 78 78 NE 8 13 30.52 1034 10 16 0.00 0.00
9:56 pm 21:56 Clear 32 0 28 -2.2 85 85 E 7 11 30.52 1034 10 16 0.00 0.00
10:56 pm 22:56 Clear 33 0.6 28 -2.2 82 82 E 9 15 30.51 1033 10 16 0.00 0.00
11:56 pm 23:56 Clear 33 0.6 28 -2.2 82 82 ENE 8 13 30.50 1033 10 16 0.00 0.00

Powered by AerisWeather